User: anonymous   Login
Location: Irma
(52.9170°N, 111.2330°W)
Time: 19:47:06
(UTC-06:00)
Language:

Cosmos 2279 Rocket - Orbit

View from above orbital plane
View from above orbital plane
View from above satellite
View from above satellite

Ground track
Ground track

The orbit data is extracted from the following two-line orbital elements,

1 23093U 94024B   17177.22973906 +.00000010 +00000-0 -48371-5 0  9997
2 23093 082.9474 107.7747 0009863 347.1613 012.9292 13.77730630632437
Epoch (UTC): 26 June 2017 05:30:49
Eccentricity: 0.0009863
inclination: 82.9474°
perigee height: 964 km
apogee height: 979 km
right ascension of ascending node: 107.7747°
argument of perigee: 347.1613°
revolutions per day: 13.77730630
mean anomaly at epoch: 12.9292°
orbit number at epoch: 63243

The dashed part of the orbit path shows where the satellite is in the earth's shadow,  

DLR